Dewpoint
70 70 71 73 73 73 72 72 73 73 73 73 73 73 73 73 73 73 73 73 73 72 73 73 72 72 71 71 71 70 70 69 68 67 67 66 66 67 67 68 68 68 69 70 68 68 69 69 69 69 69 69 69 69 70 70 69 70 69 69 69 70 70 70 70 70 69 69 69 70 69 69 69 69 69 69 69 68 68 67 67 66 66 66 67
69 70 72 72 73 73 72 72 72 72 73 72 72 73 73 73 73 73 73 73 73 73 73 73 72 70 71 71 70 69 69 68 67 67 67 66 66 67 67 67 67 67 69 68 68 68 69 69 69 69 69 69 69 70 70 70 70 70 70 70 70 70 69 69 69 69 70 70 70 70 70 69 70 70 70 70 69 68 68 67 67 66 66 67 66
69 71 71 72 73 73 72 72 72 72 73 73 72 73 73 73 73 73 73 73 73 73 73 73 72 71 71 71 70 70 69 68 67 66 66 65 66 66 66 67 67 66 68 68 68 68 69 69 69 69 69 70 70 70 69 70 70 70 70 70 69 70 70 69 69 69 69 69 69 70 70 70 70 70 70 70 69 69 68 67 68 68 66 67 66
69 70 71 72 73 73 73 72 72 73 73 73 72 73 73 73 73 73 73 73 73 73 73 72 72 71 71 71 71 71 70 69 67 67 66 66 66 66 66 66 66 65 68 67 69 68 68 68 69 69 69 69 70 70 70 70 69 69 70 70 70 70 69 69 70 69 69 68 69 69 70 67 69 69 69 69 69 69 68 67 67 68 68 67 67
69 70 71 71 71 73 73 73 72 73 73 73 73 72 73 73 73 73 73 73 73 73 73 72 72 71 71 72 72 71 70 68 67 67 66 66 66 66 65 65 66 66 66 66 67 68 68 69 69 69 69 69 70 70 69 69 69 70 70 71 70 71 71 71 71 71 70 69 69 71 68 66 68 69 69 69 69 69 68 67 68 68 68 67 66
69 70 70 70 71 72 73 73 73 73 73 73 72 72 73 73 73 73 73 73 73 72 72 72 71 71 72 72 72 71 69 68 67 66 66 65 68 66 65 65 66 66 66 66 67 68 68 68 69 69 69 70 69 69 69 69 70 71 71 72 71 72 72 72 72 72 72 71 71 70 68 64 67 67 69 70 69 68 68 68 68 68 67 67 67
69 69 69 69 70 72 73 73 72 73 73 72 72 73 73 73 73 73 73 73 72 72 72 72 72 72 72 72 72 71 70 69 68 67 66 66 65 67 65 65 65 65 65 66 67 67 68 68 69 69 70 69 69 69 70 70 71 71 71 71 72 72 72 72 72 73 73 72 70 70 68 63 66 66 68 69 69 68 68 69 68 68 68 67 67
67 68 69 70 70 72 73 72 73 73 72 72 72 73 73 73 73 73 73 72 73 72 72 72 72 72 72 72 72 71 70 69 69 68 66 66 66 67 66 65 66 67 67 67 68 67 68 68 69 69 69 69 69 69 69 70 70 71 71 71 72 72 72 72 73 73 73 68 69 67 61 63 66 66 68 69 69 68 69 68 68 68 68 67 67
66 67 69 70 71 72 72 72 72 73 73 72 72 72 73 73 73 73 73 72 72 72 72 72 72 72 72 72 72 71 70 70 70 69 67 66 65 68 69 67 67 69 70 71 70 69 68 68 69 69 68 68 68 69 69 70 70 70 71 70 71 71 72 72 72 73 70 66 61 60 61 64 66 67 68 69 69 69 69 68 68 68 68 67 67
66 67 68 70 71 72 72 72 72 73 72 72 72 72 73 73 73 72 73 72 72 72 72 72 72 72 72 72 71 70 69 69 69 70 70 69 67 67 69 68 67 68 68 68 68 68 68 68 68 68 68 68 68 68 69 69 70 70 70 71 71 71 72 72 72 70 67 66 61 59 63 67 66 67 68 69 69 69 68 68 68 68 67 67 67
67 68 68 69 71 72 72 72 72 72 72 72 72 73 73 72 72 72 72 72 72 72 72 72 72 72 72 72 71 70 70 69 69 69 69 69 69 68 68 68 68 69 69 69 69 68 68 69 68 67 68 67 67 69 69 69 70 70 70 70 71 72 72 72 72 67 65 65 63 65 68 69 67 67 69 69 69 69 68 68 68 68 68 68 68
67 67 68 70 72 72 72 72 72 72 72 72 73 73 73 72 72 72 72 72 72 72 72 72 72 72 72 72 71 71 71 70 69 69 69 68 68 69 69 69 69 69 69 69 69 69 69 69 68 68 66 69 68 68 69 69 70 70 70 71 71 72 72 72 70 67 65 65 59 61 63 66 67 68 69 69 69 69 69 68 68 68 68 68 67
66 67 69 70 71 72 72 72 72 72 72 73 73 73 72 72 72 72 72 72 72 72 72 72 72 72 71 71 71 71 70 69 69 68 68 68 68 68 69 69 70 69 69 69 69 69 69 68 68 67 68 67 69 69 69 69 70 70 70 71 71 72 73 72 67 62 59 58 60 61 63 67 68 70 70 70 69 69 69 68 67 67 67 67 67
67 68 69 70 70 72 72 72 72 72 73 73 73 73 72 72 72 72 72 72 72 71 72 72 71 70 70 70 69 69 69 68 68 68 68 68 67 68 69 69 69 69 69 69 69 68 69 68 68 68 69 69 69 70 69 70 70 70 71 71 72 72 73 70 69 63 59 61 63 62 64 68 69 70 70 70 70 69 68 68 67 67 67 67 66
67 67 68 69 70 70 72 72 72 73 73 73 73 73 73 73 73 72 72 72 72 71 71 70 70 70 70 69 69 68 68 68 67 67 66 66 67 67 68 69 69 69 69 68 69 69 69 68 69 69 70 70 69 69 70 69 70 70 70 71 71 72 72 70 68 64 60 62 62 61 63 67 70 71 70 70 70 69 69 68 68 67 68 69 68
67 67 69 69 70 70 70 72 73 73 73 73 73 73 73 72 72 72 72 72 71 71 71 70 70 70 70 69 69 68 68 67 67 66 66 66 66 66 67 68 68 68 68 69 69 69 69 69 70 69 69 69 69 69 69 70 69 69 70 71 71 72 71 72 68 65 61 62 62 64 64 68 71 70 70 70 69 69 69 69 68 68 69 69 69
67 68 68 69 70 70 70 71 73 73 73 73 73 72 72 72 72 72 71 71 71 70 70 69 69 70 69 69 68 68 67 66 66 66 65 65 66 66 67 67 67 67 68 68 69 69 69 70 70 69 68 69 69 69 69 69 70 70 70 71 71 71 71 71 69 66 63 65 64 66 66 67 71 68 69 69 69 69 69 69 69 69 69 69 69
66 66 67 69 69 69 71 72 72 72 72 72 72 72 72 72 72 71 71 70 70 70 69 69 68 68 68 68 68 67 66 66 65 65 65 66 65 66 65 65 66 67 67 68 68 69 69 69 68 69 68 68 68 69 69 69 70 70 70 71 71 71 71 71 68 65 65 67 66 69 69 70 70 68 68 68 69 69 69 69 69 69 69 69 68
65 66 67 67 68 69 70 72 72 72 72 71 71 71 72 71 71 71 70 70 69 69 68 67 67 67 67 67 67 67 66 66 65 65 66 65 65 66 66 66 66 67 68 68 68 69 69 68 68 68 68 68 68 69 69 70 70 70 70 71 71 71 71 71 66 63 66 66 68 69 69 71 71 69 69 68 68 69 69 69 68 68 69 68 68
64 64 65 66 68 69 70 71 71 71 71 71 71 71 71 71 71 70 70 69 69 68 68 67 67 66 66 66 67 67 66 66 66 65 65 66 66 67 67 67 67 67 68 68 69 68 68 67 67 67 68 68 68 69 69 70 70 70 71 71 71 70 69 66 65 66 67 70 70 70 72 71 72 71 71 70 69 68 69 69 68 68 69 69 69
64 63 64 66 67 69 70 71 71 71 71 71 71 71 71 71 70 70 70 69 69 68 68 68 67 67 67 67 67 67 66 65 65 66 66 67 66 66 67 67 68 68 68 68 68 68 68 68 67 69 69 69 70 70 70 70 70 71 71 71 70 68 67 65 66 68 69 70 71 71 72 72 72 71 70 70 70 69 69 69 68 69 69 69 69
63 63 64 65 66 68 69 70 70 71 71 71 71 71 71 70 69 69 69 69 69 68 68 67 69 67 67 67 67 68 66 65 66 66 67 67 67 67 68 67 67 68 68 68 68 68 68 68 69 70 69 71 70 69 69 69 69 71 71 70 69 68 67 67 67 68 69 70 71 71 72 71 71 70 70 70 69 69 69 69 69 69 69 70 70
63 63 64 65 65 68 69 69 70 70 70 71 71 71 70 69 69 69 69 69 69 69 68 68 68 67 68 67 69 68 66 65 67 68 68 68 68 67 68 67 67 67 67 68 68 69 69 69 70 70 71 71 69 68 67 66 64 68 71 70 67 67 68 68 67 68 69 69 70 71 71 71 70 70 70 70 70 70 69 69 69 70 70 70 69
63 63 63 65 64 66 68 69 70 70 70 70 70 70 69 69 69 69 68 68 67 68 67 67 67 67 68 68 68 69 67 66 69 68 67 68 67 68 68 67 67 68 68 68 69 69 69 70 71 71 71 70 68 67 66 64 62 65 68 69 67 68 68 68 68 68 68 68 68 70 70 71 70 71 71 71 70 69 70 70 70 69 69 69 69
64 64 64 65 63 64 68 68 69 70 70 70 70 69 69 68 68 68 68 67 67 66 66 67 65 66 67 68 69 69 68 68 67 66 65 66 66 66 66 66 67 66 69 67 67 66 67 67 67 68 67 67 66 64 63 61 62 66 67 67 67 67 69 68 67 67 67 67 68 69 69 69 70 70 70 70 69 69 69 70 70 69 68 68 68
64 63 63 64 62 65 67 68 70 70 70 70 69 69 69 68 68 67 67 66 66 66 66 66 65 64 67 69 69 68 68 67 66 64 65 65 64 66 67 67 66 67 68 68 67 68 68 66 67 68 66 65 66 66 67 69 66 66 67 67 67 67 67 67 66 66 66 66 67 68 68 68 68 69 70 69 69 68 70 69 69 69 68 67 67
64 63 63 63 63 65 67 69 69 70 69 69 69 69 68 68 68 66 65 65 65 65 66 65 66 68 68 69 68 69 69 68 68 68 69 69 69 68 69 69 68 68 69 69 69 69 69 69 69 68 68 66 66 66 67 68 66 65 66 66 66 66 67 66 66 65 65 66 67 67 67 67 67 67 68 69 69 69 69 68 68 68 67 67 67
63 63 62 63 66 66 68 69 69 70 69 69 68 68 68 68 67 68 66 65 64 65 65 66 67 68 69 69 71 70 69 68 68 68 68 68 67 68 69 68 68 68 69 68 69 69 69 69 68 68 68 66 65 65 65 68 67 65 65 64 65 66 66 65 65 65 64 65 65 66 66 66 66 66 66 67 68 67 67 67 68 68 67 66 66
62 62 62 62 65 67 68 69 69 69 69 69 68 68 67 67 67 67 66 66 64 64 65 67 67 68 69 70 69 68 69 68 68 67 68 67 67 67 67 68 67 67 68 68 68 67 67 69 69 69 67 67 66 67 67 66 65 64 63 64 64 65 66 65 65 64 64 64 64 64 65 64 64 64 65 65 65 66 66 66 66 66 67 66 65
62 61 61 62 63 67 68 68 68 68 68 69 68 67 67 66 66 66 65 68 64 64 66 66 67 67 69 70 69 68 68 67 68 68 68 67 67 67 67 66 67 68 67 67 68 68 68 69 69 68 68 67 66 65 67 64 63 63 62 64 64 65 65 64 64 63 63 63 62 62 62 62 61 61 61 62 63 63 63 63 64 65 65 66 64
62 61 60 62 62 65 66 67 68 68 69 69 68 67 67 66 66 66 66 64 64 65 66 66 67 67 69 69 69 69 68 68 68 67 67 67 67 66 65 66 67 67 67 67 68 68 68 67 67 66 66 66 65 65 65 64 63 60 60 60 60 60 63 64 63 62 61 60 60 60 59 60 59 58 58 58 59 59 60 60 62 62 63 64 63
61 60 60 62 61 63 64 66 67 68 68 68 68 67 67 66 66 67 63 65 66 65 65 64 68 68 69 69 69 69 69 68 67 67 67 67 66 65 66 66 66 67 67 67 68 68 68 68 68 67 66 66 66 66 66 63 58 56 55 56 58 58 60 63 63 62 60 60 59 59 58 56 57 56 55 55 54 54 55 55 57 59 61 61 62
60 61 61 62 60 62 63 65 66 68 67 67 67 67 67 67 66 66 63 67 66 65 65 67 67 68 69 70 69 69 69 68 67 67 68 67 67 66 66 66 66 66 67 67 67 68 67 67 66 65 66 64 64 64 62 59 57 57 56 55 54 55 57 60 62 61 60 58 57 57 57 57 55 55 56 54 53 53 52 51 52 54 56 57 58
61 61 62 62 61 64 66 66 67 67 66 68 67 66 66 67 66 66 66 65 65 65 67 66 68 67 69 69 70 70 69 68 67 68 67 67 67 67 67 67 66 67 67 67 67 67 66 67 66 65 65 65 65 63 61 58 57 55 55 55 55 54 53 55 56 58 59 59 58 56 55 55 54 54 54 54 54 53 52 52 52 52 53 54 55
62 62 62 62 62 65 67 67 67 66 67 69 67 67 67 66 66 65 65 65 65 64 67 66 67 67 68 69 70 70 69 69 68 67 67 67 66 65 66 66 66 67 66 66 66 66 65 64 65 65 64 66 64 62 57 57 55 54 53 53 53 53 53 50 50 52 51 51 51 52 53 54 52 52 54 54 57 53 52 52 53 53 53 53 54
62 62 62 62 61 65 67 66 66 66 67 68 67 67 67 66 65 68 65 66 66 66 66 66 67 68 68 68 69 70 69 69 68 67 67 67 66 66 66 66 66 66 66 65 66 65 64 64 64 64 62 63 62 59 57 56 54 54 54 53 52 52 51 51 49 48 49 48 47 48 48 49 50 53 54 52 53 55 54 53 53 54 54 53 53
62 62 62 62 61 65 66 66 66 66 67 67 67 67 67 66 66 66 65 66 65 66 66 66 67 68 68 69 69 70 69 68 68 68 67 67 66 67 67 66 66 66 66 65 65 65 64 65 64 63 61 61 62 60 57 55 54 53 52 51 52 52 50 50 50 49 49 45 44 44 47 48 53 54 46 48 52 53 53 53 54 54 53 53 51
63 63 63 61 62 65 66 66 66 66 67 67 67 67 67 66 66 65 66 66 66 66 66 67 68 68 68 68 69 69 69 68 67 67 67 67 67 67 67 68 67 67 65 66 64 64 63 63 62 62 61 61 61 58 56 55 55 53 52 51 51 50 51 49 51 54 47 45 44 44 45 46 45 45 44 44 46 52 54 54 53 53 53 52 50
64 63 63 61 63 65 66 67 66 66 67 67 68 67 67 66 66 66 65 66 66 67 67 67 68 68 68 68 68 68 68 67 67 67 67 67 67 67 67 66 67 67 64 62 63 64 64 63 62 61 63 61 59 60 56 55 54 54 52 51 50 50 51 54 50 46 47 50 52 50 45 42 44 45 44 44 44 45 47 48 46 49 51 51 50
64 62 62 61 64 65 66 66 67 67 67 67 67 66 66 65 65 65 65 65 66 66 67 67 68 68 68 69 68 67 67 66 66 66 67 66 66 66 66 66 64 62 62 62 61 62 61 60 60 60 61 60 58 56 55 54 54 53 54 53 53 53 52 51 48 48 48 47 46 46 47 46 42 44 46 45 43 43 41 43 50 45 46 49 50
65 63 62 61 64 65 66 65 67 67 67 67 66 65 65 65 64 64 64 65 66 66 67 67 67 67 67 68 68 68 67 67 67 66 65 67 64 65 64 63 63 62 62 61 60 59 61 61 61 61 59 59 58 56 55 54 53 52 52 51 50 53 54 50 48 47 44 44 44 43 47 44 45 44 42 46 45 43 42 42 43 43 45 43 45
64 63 62 61 64 64 66 66 67 67 67 67 66 65 65 64 64 64 64 65 66 65 66 67 67 67 67 67 67 67 66 66 66 66 65 65 64 64 61 61 63 63 63 62 62 63 61 60 60 58 60 60 58 57 57 55 53 51 50 50 50 49 52 47 47 46 46 46 48 46 47 44 44 44 47 39 42 41 41 42 44 44 45 46 45
65 63 63 62 64 64 65 66 66 66 67 67 66 65 65 65 64 64 64 64 65 66 66 67 67 67 67 67 67 66 65 65 66 66 65 63 62 61 61 61 61 62 60 61 60 59 58 60 60 57 55 56 59 60 59 58 54 53 52 49 46 46 48 45 46 45 43 45 46 45 47 41 37 39 45 44 40 40 42 43 43 44 43 45 46
65 63 63 62 64 64 65 66 66 66 67 67 67 66 66 65 65 65 65 64 65 66 66 65 64 64 64 65 65 64 63 63 63 63 63 63 63 62 62 61 62 61 59 58 60 59 58 58 61 59 56 52 55 55 58 56 57 54 50 51 49 48 45 44 43 43 44 44 45 45 46 45 43 44 47 35 40 43 43 44 46 44 44 44 47
64 63 63 63 65 64 65 66 66 66 67 67 66 66 66 65 66 65 65 65 64 64 64 63 63 64 62 62 62 62 62 62 62 61 61 60 60 60 60 59 58 59 60 59 58 58 59 59 59 56 54 54 54 54 50 55 54 57 55 53 51 50 49 46 42 40 42 40 42 45 47 47 43 46 40 36 39 41 41 42 44 48 46 46 46
64 64 64 63 64 64 65 66 66 66 66 66 66 66 65 64 64 63 63 63 62 62 62 62 63 62 62 62 62 61 62 62 62 61 61 60 58 58 60 58 58 59 61 57 58 57 57 56 56 58 54 54 50 48 48 53 53 53 54 53 53 51 42 41 44 38 45 46 45 43 40 43 46 44 44 38 39 40 48 41 42 45 48 45 45
64 64 64 64 65 65 65 66 66 66 66 66 66 65 65 64 64 63 63 62 62 62 63 63 62 62 62 61 61 61 61 60 60 59 60 60 59 58 59 58 59 57 59 58 57 54 54 55 56 54 55 55 50 48 48 48 47 48 51 49 55 55 47 41 43 40 36 40 42 38 39 42 43 43 44 37 43 44 44 46 43 41 42 45 45
65 65 64 65 65 65 65 66 66 66 66 65 66 65 64 64 63 63 63 63 62 62 63 62 62 62 61 61 60 60 60 61 59 57 58 58 57 58 58 57 55 56 58 55 55 55 54 55 56 55 53 54 51 46 47 49 43 43 52 49 52 51 49 49 45 39 40 38 37 41 43 40 40 42 47 41 43 46 45 45 43 40 40 41 39
65 65 65 65 65 66 66 66 66 66 65 65 65 64 64 64 64 63 63 63 63 63 63 62 62 61 60 59 59 59 60 60 59 57 57 58 59 56 56 56 55 55 55 53 52 52 53 53 52 52 50 51 53 51 50 48 48 48 50 48 47 47 46 45 46 47 46 41 39 39 37 42 43 45 42 44 43 41 44 46 43 44 45 46 43
65 65 65 66 66 66 66 66 65 65 65 65 65 64 65 65 64 63 63 63 63 63 62 62 61 60 59 59 59 59 58 57 56 56 56 55 54 55 51 51 53 53 53 51 51 51 52 52 52 51 51 49 50 49 48 48 47 46 47 46 45 45 44 43 43 44 45 45 41 38 40 37 38 41 45 42 42 41 42 43 45 43 40 39 38
66 66 65 66 66 66 66 65 65 65 65 64 64 64 65 65 64 63 63 63 63 62 61 61 61 60 58 58 59 58 58 58 57 56 56 56 55 53 50 51 53 55 53 51 51 50 51 50 51 51 50 49 49 49 49 48 47 46 44 44 44 44 43 43 42 44 42 41 41 41 41 41 41 42 42 42 44 40 39 40 41 41 40 38 38